When you browse on this site, cookies collect data to enhance your experience and personalize the content and advertising you see.
Visit our Privacy Policy to learn more. By continuing to use the site, you agree to this use of cookies and data.
  • In Hungary
  • List of Countries
  • For 7 days
  • Water Temperature
  • Satellite Maps
  • Weather Map
  • News
  • Weather Widgets
  • user-avatar
    Login

    Hourly Weather Lanckorona

    Today, 27 June, Thursday

    Time Temperature Precipitation Wind Pressure Humidity
    00:00 +24°C° 0.2 mm 3 mps 728 mmHg 86%
    01:00 +24°C° 0 mm 3 mps 728 mmHg 90%
    02:00 +22°C° 1.3 mm 3 mps 728 mmHg 91%
    03:00 +22°C° 1.3 mm 3 mps 728 mmHg 93%
    04:00 +22°C° 1.3 mm 3 mps 727 mmHg 94%
    05:00 +22°C° 1.5 mm 3 mps 728 mmHg 93%
    06:00 +24°C° 1.5 mm 3 mps 728 mmHg 92%
    07:00 +24°C° 1.5 mm 3 mps 728 mmHg 90%
    08:00 +24°C° 0.4 mm 3 mps 728 mmHg 88%
    09:00 +23°C° 0.4 mm 4 mps 728 mmHg 86%
    10:00 +23°C° 0.4 mm 4 mps 728 mmHg 84%
    11:00 +25°C° 0.1 mm 5 mps 728 mmHg 73%
    12:00 +26°C° 0.1 mm 5 mps 728 mmHg 62%
    13:00 +27°C° 0.1 mm 6 mps 728 mmHg 51%
    14:00 +26°C° 0 mm 6 mps 728 mmHg 51%
    15:00 +25°C° 0 mm 5 mps 728 mmHg 51%
    16:00 +25°C° 0 mm 5 mps 727 mmHg 51%
    17:00 +22°C° 0 mm 4 mps 727 mmHg 57%
    18:00 +20°C° 0 mm 4 mps 727 mmHg 64%
    19:00 +19°C° 0 mm 3 mps 727 mmHg 70%
    20:00 +17°C° 0 mm 2 mps 727 mmHg 72%
    21:00 +16°C° 0 mm 2 mps 727 mmHg 74%
    22:00 +15°C° 0 mm 1 mps 727 mmHg 76%
    23:00 +14°C° 0 mm 1 mps 728 mmHg 77%

    Tomorrow, 28 June, Friday

    Time Temperature Precipitation Wind Pressure Humidity
    00:00 +14°C° 0 mm 1 mps 728 mmHg 78%
    01:00 +14°C° 0 mm 1 mps 728 mmHg 80%
    02:00 +14°C° 0 mm 1 mps 728 mmHg 84%
    03:00 +14°C° 0 mm 1 mps 728 mmHg 88%
    04:00 +13°C° 0 mm 1 mps 728 mmHg 92%
    05:00 +14°C° 0.1 mm 1 mps 728 mmHg 90%
    06:00 +15°C° 0.1 mm 2 mps 729 mmHg 88%
    07:00 +15°C° 0.1 mm 2 mps 729 mmHg 86%
    08:00 +17°C° 0.1 mm 2 mps 729 mmHg 78%
    09:00 +18°C° 0.1 mm 3 mps 729 mmHg 70%
    10:00 +19°C° 0.1 mm 3 mps 730 mmHg 61%
    11:00 +20°C° 0 mm 3 mps 729 mmHg 59%
    12:00 +20°C° 0 mm 3 mps 729 mmHg 57%
    13:00 +21°C° 0 mm 3 mps 729 mmHg 55%
    14:00 +21°C° 0.1 mm 3 mps 729 mmHg 57%
    15:00 +21°C° 0.1 mm 3 mps 729 mmHg 59%
    16:00 +21°C° 0.1 mm 2 mps 729 mmHg 62%
    17:00 +20°C° 0.5 mm 2 mps 729 mmHg 70%
    18:00 +18°C° 0.5 mm 2 mps 729 mmHg 79%
    19:00 +17°C° 0.5 mm 2 mps 728 mmHg 88%
    20:00 +16°C° 0.2 mm 2 mps 729 mmHg 90%
    21:00 +15°C° 0.2 mm 2 mps 729 mmHg 91%
    22:00 +15°C° 0.2 mm 1 mps 729 mmHg 92%
    23:00 +14°C° 0.1 mm 1 mps 729 mmHg 91%

    Day after tomorrow, 29 June, Saturday

    Time Temperature Precipitation Wind Pressure Humidity
    00:00 +13°C° 0.1 mm 1 mps 729 mmHg 91%
    01:00 +13°C° 0.1 mm 1 mps 729 mmHg 90%
    02:00 +11°C° 0 mm 0 mps 729 mmHg 89%
    03:00 +10°C° 0 mm 0 mps 730 mmHg 88%
    04:00 +10°C° 0 mm 0 mps 730 mmHg 87%
    05:00 +11°C° 0 mm 0 mps 730 mmHg 81%
    06:00 +13°C° 0 mm 0 mps 730 mmHg 75%
    07:00 +14°C° 0 mm 0 mps 730 mmHg 69%
    08:00 +18°C° 0 mm 1 mps 730 mmHg 63%
    09:00 +19°C° 0 mm 1 mps 731 mmHg 57%
    10:00 +21°C° 0 mm 1 mps 731 mmHg 52%
    11:00 +22°C° 0 mm 1 mps 731 mmHg 51%
    12:00 +22°C° 0 mm 1 mps 730 mmHg 50%
    13:00 +23°C° 0 mm 1 mps 730 mmHg 49%
    14:00 +23°C° 0 mm 1 mps 730 mmHg 50%
    15:00 +24°C° 0 mm 1 mps 730 mmHg 51%
    16:00 +24°C° 0 mm 1 mps 729 mmHg 51%
    17:00 +22°C° 0 mm 1 mps 729 mmHg 58%
    18:00 +21°C° 0 mm 1 mps 729 mmHg 64%
    19:00 +20°C° 0 mm 1 mps 729 mmHg 71%
    20:00 +19°C° 0 mm 1 mps 729 mmHg 71%
    21:00 +16°C° 0 mm 1 mps 729 mmHg 72%
    22:00 +15°C° 0 mm 2 mps 729 mmHg 72%
    23:00 +15°C° 0 mm 2 mps 729 mmHg 72%

    30 June, Sunday

    Time Temperature Precipitation Wind Pressure Humidity
    00:00 +15°C° 0 mm 2 mps 729 mmHg 72%
    01:00 +14°C° 0 mm 2 mps 729 mmHg 72%
    02:00 +14°C° 0 mm 2 mps 729 mmHg 72%
    03:00 +14°C° 0 mm 2 mps 728 mmHg 72%
    04:00 +14°C° 0 mm 2 mps 728 mmHg 72%
    05:00 +16°C° 0 mm 1 mps 729 mmHg 68%
    06:00 +19°C° 0 mm 1 mps 729 mmHg 64%
    07:00 +21°C° 0 mm 1 mps 729 mmHg 61%
    08:00 +23°C° 0 mm 1 mps 729 mmHg 55%
    09:00 +26°C° 0 mm 1 mps 729 mmHg 50%
    10:00 +28°C° 0 mm 1 mps 730 mmHg 44%
    11:00 +29°C° 0 mm 1 mps 729 mmHg 43%
    12:00 +30°C° 0 mm 1 mps 729 mmHg 42%
    13:00 +30°C° 0 mm 1 mps 729 mmHg 40%
    14:00 +30°C° 0 mm 1 mps 729 mmHg 43%
    15:00 +30°C° 0 mm 1 mps 728 mmHg 45%
    16:00 +30°C° 0 mm 1 mps 728 mmHg 48%
    17:00 +28°C° 0 mm 1 mps 728 mmHg 56%
    18:00 +27°C° 0 mm 1 mps 728 mmHg 64%
    19:00 +25°C° 0 mm 1 mps 727 mmHg 73%
    20:00 +23°C° 0 mm 1 mps 727 mmHg 76%
    21:00 +22°C° 0 mm 1 mps 727 mmHg 79%
    22:00 +19°C° 0 mm 2 mps 727 mmHg 82%
    23:00 +19°C° 0 mm 2 mps 727 mmHg 83%

    1 July, Monday

    Time Temperature Precipitation Wind Pressure Humidity
    00:00 +18°C° 0 mm 2 mps 727 mmHg 84%
    01:00 +17°C° 0 mm 2 mps 726 mmHg 85%
    02:00 +17°C° 0 mm 2 mps 726 mmHg 85%
    03:00 +17°C° 0 mm 2 mps 726 mmHg 85%
    04:00 +17°C° 0 mm 2 mps 726 mmHg 85%
    05:00 +19°C° 0 mm 2 mps 726 mmHg 79%
    06:00 +21°C° 0 mm 2 mps 726 mmHg 73%
    07:00 +24°C° 0 mm 3 mps 726 mmHg 68%
    08:00 +26°C° 0 mm 3 mps 726 mmHg 63%
    09:00 +28°C° 0 mm 4 mps 727 mmHg 57%
    10:00 +30°C° 0 mm 4 mps 727 mmHg 52%
    11:00 +30°C° 0 mm 4 mps 727 mmHg 52%
    12:00 +32°C° 0 mm 4 mps 726 mmHg 52%
    13:00 +32°C° 0 mm 4 mps 726 mmHg 51%
    14:00 +31°C° 0 mm 3 mps 726 mmHg 53%
    15:00 +31°C° 0 mm 3 mps 726 mmHg 55%
    16:00 +31°C° 0 mm 2 mps 725 mmHg 56%
    17:00 +28°C° 0.5 mm 2 mps 725 mmHg 67%
    18:00 +25°C° 0.5 mm 2 mps 725 mmHg 78%
    19:00 +23°C° 0.5 mm 1 mps 725 mmHg 89%
    20:00 +21°C° 0.3 mm 2 mps 725 mmHg 89%
    21:00 +21°C° 0.3 mm 3 mps 725 mmHg 89%
    22:00 +20°C° 0.3 mm 3 mps 725 mmHg 90%
    23:00 +20°C° 0.9 mm 3 mps 725 mmHg 92%

    2 July, Tuesday

    Time Temperature Precipitation Wind Pressure Humidity
    00:00 +19°C° 0.9 mm 2 mps 725 mmHg 93%
    01:00 +19°C° 0.9 mm 2 mps 725 mmHg 95%
    02:00 +19°C° 0.1 mm 2 mps 725 mmHg 95%
    03:00 +18°C° 0.1 mm 2 mps 725 mmHg 94%
    04:00 +18°C° 0.1 mm 2 mps 725 mmHg 94%
    05:00 +19°C° 0 mm 2 mps 726 mmHg 90%
    06:00 +19°C° 0 mm 2 mps 726 mmHg 87%
    07:00 +20°C° 0 mm 2 mps 726 mmHg 84%
    08:00 +21°C° 0 mm 2 mps 726 mmHg 77%
    09:00 +23°C° 0 mm 2 mps 727 mmHg 69%
    10:00 +24°C° 0 mm 2 mps 727 mmHg 62%
    11:00 +25°C° 0 mm 2 mps 727 mmHg 59%
    12:00 +25°C° 0 mm 3 mps 726 mmHg 57%
    13:00 +25°C° 0 mm 3 mps 726 mmHg 54%
    14:00 +25°C° 0 mm 3 mps 726 mmHg 55%
    15:00 +25°C° 0 mm 3 mps 726 mmHg 56%
    16:00 +25°C° 0 mm 3 mps 726 mmHg 57%
    17:00 +24°C° 0 mm 3 mps 726 mmHg 63%
    18:00 +21°C° 0 mm 2 mps 726 mmHg 69%
    19:00 +20°C° 0 mm 2 mps 726 mmHg 75%
    20:00 +19°C° 0 mm 2 mps 726 mmHg 74%
    21:00 +18°C° 0 mm 2 mps 727 mmHg 72%
    22:00 +18°C° 0 mm 1 mps 727 mmHg 71%
    23:00 +16°C° 0 mm 1 mps 727 mmHg 74%
    Show more